[[{"header":{"parameterUnit":"m.s-1","parameterCategory":1,"la1":30.2991,"la2":30.254,"lo1":-89.0895,"lo2":-89.0444,"dy":0.0017,"dx":0.0017,"nx":28,"ny":28,"refTime":"2025-06-05T21:00:00:Z","depth":0,"parameterNumber":2,"parameterNumberName":"U-component_of_WINDS"},"data":[0,0,0,0,0,0,0,0,0,0,0,0,0,0,0,0,0,0,0,0,0,0,0,0,0,0,0,0,0,0,0,0,0,0,0,0,0,0,0,0,0,0,0,0,0,0,0,0,0,0,0,0,0,0,0,0,0,0,0.9836,0.9837,0,0.9929,0.993,0.9931,0.9958,0.9958,0.9957,0.9957,1.005,1.0053,1.0056,0,0,0,0,0,0,0,0,0,0,0,0,0,0.9679,0.9681,0.9836,0.9837,0.9838,0.9929,0.993,0.9931,0.9958,0.9958,0.9957,0.9957,1.0049,1.0052,1.0056,0,0,0,0,0,0,0,0,0,0,0,0,0,0.9757,0.9682,0.9836,0.9863,0.9866,0.9929,0.993,0.9932,0.9958,0.9958,0.9957,0.9956,1.0048,1.0052,1.0056,1.0098,0,0,1.007,1.0072,0,0,0,0,0,0,0,0,0.9752,0.9762,0.9858,0.9861,0.9865,0.9931,0.9909,0.9987,0.9959,0.9923,0.9957,0.9956,1.0011,1.0018,1.0037,1.0102,1.0106,1.007,1.0073,1.0075,1.0076,0,0,0,0,0,0,0,0.9747,0.9758,0.9873,0.9859,0.9863,0.9869,0.9879,0.9924,0.997,0.9926,0.9928,0.9939,1.0013,1.0033,1.004,1.0108,1.007,1.0074,1.0077,1.0078,1.021,1.0211,0,0,0,0,0,0,0.9737,0.9754,0.987,0.9875,0.9806,0.9872,0.9884,0.9911,0.997,0.9978,0.994,0.994,1.0026,1.0034,1.0043,1.0094,1.0075,1.0079,1.0081,1.0209,1.021,1.0211,0,0,0,0,0,0,0.9734,0.9747,0.9866,0.9815,0.9831,0.9876,0.9906,0.9913,0.9933,0.998,0.9988,0.9952,1.0025,1.0037,1.0084,1.0098,1.0081,1.0085,1.0208,1.0209,1.021,1.0198,0,0,0,0,0,0,0.9729,0.9746,0.9763,0.9816,0.9833,0.9906,0.9907,0.9915,0.9941,0.9942,0.9994,1.0001,1.0026,1.0077,1.0088,1.0104,1.0088,1.0207,1.0209,1.021,1.0198,1.0199,1.02,0,0,0,0,0,0.9723,0.9756,0.9764,0.9778,0.9856,0.9907,0.9917,0.9945,0.9942,0.9959,0.9989,1.0,1.0095,1.0082,1.0094,1.0111,1.0206,1.0208,1.021,1.0197,1.0199,1.02,0,0,0,0,0,0,0.9703,0.9763,0.9773,0.9823,0.986,0.9912,0.9934,0.9947,0.9984,0.9984,1.0017,1.0028,1.0072,1.0097,1.0081,1.0154,1.0151,1.0155,1.0136,1.0138,1.014,1.0133,1.0092,0,0,0,0,0,0.9705,0.9742,0.9792,0.9832,0.985,0.9889,0.9912,0.993,0.9969,0.9985,1.0018,1.0055,1.0093,1.0117,1.0155,1.0201,1.0212,1.0219,1.022,1.0221,1.0225,1.025,1.0253,1.0217,1.0217,1.0217,0,0,0.9708,0.9745,0.9767,0.9829,0.9859,0.9896,0.9901,0.994,0.9968,0.999,1.0037,1.0062,1.0105,1.0152,1.0174,1.0174,1.0237,1.0224,1.0224,1.0227,1.0252,1.0255,1.0258,1.0219,1.0218,1.0218,0,0,0.9733,0.9766,0.9802,0.9832,0.9878,0.9904,0.9912,0.9962,0.998,1.0027,1.0044,1.0077,1.0142,1.0171,1.0195,1.0229,1.024,1.024,1.0247,1.0271,1.0274,1.0276,1.0287,1.0291,1.0244,1.0244,1.0244,0,0.9731,0.9788,0.9818,0.9856,0.9882,0.9905,0.9941,0.9968,1.0024,1.0041,1.004,1.0121,1.0152,1.0205,1.0213,1.0232,1.0241,1.0235,1.0271,1.0274,1.0277,1.0288,1.0292,1.0243,1.0243,1.0243,1.0243,0,0.9783,0.9822,0.9845,0.9899,0.9927,0.9964,0.9998,1.0024,1.0039,1.0064,1.0111,1.0148,1.0193,1.0207,1.0223,1.0262,1.026,1.0265,1.0262,1.0279,1.029,1.0294,1.0243,1.0243,1.0243,1.0243,0,0,0.9798,0.9867,0.9875,0.9899,0.9951,0.9981,1.0018,1.0063,1.0083,1.012,1.0151,1.0205,1.0209,1.0236,1.0255,1.0276,1.0299,1.0277,1.0279,1.0279,1.0343,1.0339,1.0343,1.0307,1.0308,1.0308,1.0339,0,0.9828,0.9896,0.9924,0.9978,1.0013,1.0035,1.0067,1.0101,1.0126,1.0158,1.0185,1.0222,1.0225,1.0241,1.0263,1.0291,1.0312,1.029,1.0334,1.0336,1.0322,1.0349,1.0345,1.0372,1.0343,1.0344,1.0345,0,0.9873,0.9911,0.9969,1.0015,1.0031,1.006,1.0102,1.0133,1.0172,1.0188,1.0217,1.0235,1.0273,1.0268,1.032,1.0304,1.0324,1.0341,1.0343,1.0347,1.0341,1.0353,1.0381,1.0385,1.0352,1.0351,1.0351,0,0.9876,0.9942,0.9985,1.0005,1.0061,1.008,1.0104,1.0142,1.0167,1.0203,1.0219,1.0259,1.0281,1.0311,1.0339,1.0333,1.0388,1.0386,1.0401,1.04,1.0412,1.041,1.0442,1.0426,1.0426,1.0425,1.0425,0,0.9907,0.9941,0.9987,1.0013,1.0052,1.0082,1.0119,1.0145,1.0178,1.0209,1.023,1.0258,1.0293,1.0325,1.0347,1.0386,1.0396,1.0409,1.0414,1.0407,1.0405,1.042,1.0418,1.0427,1.0426,1.0426,1.0426,0,0.9918,0.995,0.9998,1.0046,1.0059,1.0085,1.0126,1.0152,1.0177,1.0215,1.0226,1.0264,1.0303,1.0334,1.0384,1.0399,1.0439,1.0446,1.0426,1.0429,1.0442,1.044,1.0484,1.0491,1.047,1.0471,1.0471,0,0.9935,0.9962,1.0013,1.0035,1.0059,1.0095,1.012,1.015,1.0175,1.0221,1.0241,1.0281,1.0315,1.0376,1.0408,1.0446,1.0453,1.0466,1.0459,1.045,1.0452,1.0449,1.0452,1.0466,1.0466,1.0466,1.0466,0,0.9961,0.9975,1.0011,1.0052,1.0081,1.0115,1.0149,1.0165,1.0202,1.0229,1.0269,1.0295,1.0347,1.0386,1.0427,1.0451,1.0464,1.0468,1.0474,1.0466,1.0453,1.0459,1.0427,1.0467,1.0467,1.0467,1.0467,1.0467,0.9975,0.9999,1.0039,1.0077,1.0106,1.0137,1.0163,1.0191,1.0225,1.027,1.0286,1.0326,1.0363,1.0421,1.0444,1.0476,1.0477,1.0485,1.0487,1.0488,1.0487,1.0449,1.0484,1.0484,1.0484,1.0484,1.0484,0,1.0001,1.0028,1.0063,1.011,1.014,1.015,1.0188,1.0212,1.0248,1.0282,1.0315,1.036,1.0398,1.0432,1.0472,1.049,1.0497,1.0499,1.0498,1.0503,1.0485,1.0475,1.0493,1.0493,1.0493,1.0493,1.0493,1.0493,1.0019,1.006,1.0079,1.0134,1.016,1.0201,1.0221,1.0249,1.0276,1.0326,1.0358,1.038,1.0414,1.0456,1.049,1.0499,1.0512,1.0513,1.0523,1.0506,1.0504,1.0503,1.0495,1.0516,1.0516,1.0539,1.0539,1.0539]},{"header":{"parameterUnit":"m.s-1","parameterCategory":1,"la1":30.2991,"la2":30.254,"lo1":-89.0895,"lo2":-89.0444,"dy":0.0017,"dx":0.0017,"nx":28,"ny":28,"refTime":"2025-06-05T21:00:00:Z","depth":0,"parameterNumber":3,"parameterNumberName":"V-component_of_WINDS"},"data":[0,0,0,0,0,0,0,0,0,0,0,0,0,0,0,0,0,0,0,0,0,0,0,0,0,0,0,0,0,0,0,0,0,0,0,0,0,0,0,0,0,0,0,0,0,0,0,0,0,0,0,0,0,0,0,0,0,0,4.7261,4.7261,0,4.7291,4.7291,4.7291,4.7213,4.721,4.7208,4.7206,4.7233,4.7236,4.7239,0,0,0,0,0,0,0,0,0,0,0,0,0,4.7131,4.7134,4.7261,4.7261,4.7262,4.7291,4.7291,4.7292,4.7213,4.721,4.7207,4.7205,4.7232,4.7236,4.7239,0,0,0,0,0,0,0,0,0,0,0,0,0,4.7177,4.7135,4.7261,4.7226,4.7223,4.7291,4.7291,4.7292,4.7214,4.721,4.7207,4.7203,4.7231,4.7235,4.724,4.7341,0,0,4.7254,4.7255,0,0,0,0,0,0,0,0,4.7174,4.7182,4.7231,4.7229,4.7226,4.7244,4.7255,4.7308,4.7215,4.7217,4.7206,4.7201,4.724,4.7243,4.7257,4.7342,4.7343,4.7254,4.7257,4.7259,4.726,0,0,0,0,0,0,0,4.7171,4.718,4.7272,4.7232,4.7228,4.7207,4.721,4.7265,4.7249,4.7217,4.7211,4.7216,4.7237,4.7253,4.7257,4.7344,4.7254,4.7258,4.7261,4.7262,4.7512,4.7515,0,0,0,0,0,0,4.7173,4.7178,4.7271,4.7273,4.7191,4.7213,4.7216,4.7242,4.7248,4.7245,4.7219,4.7212,4.7247,4.7252,4.7257,4.7375,4.7259,4.7263,4.7265,4.7508,4.7512,4.7517,0,0,0,0,0,0,4.7171,4.7182,4.727,4.7224,4.7234,4.7219,4.7249,4.7245,4.726,4.725,4.7246,4.7238,4.7244,4.7251,4.7321,4.7375,4.7265,4.7269,4.7503,4.7509,4.7515,4.7612,0,0,0,0,0,0,4.7167,4.7182,4.7221,4.7226,4.7237,4.7335,4.7253,4.7248,4.7268,4.7259,4.7266,4.7264,4.7242,4.7314,4.7325,4.7379,4.7272,4.7498,4.7506,4.7513,4.7603,4.762,4.7634,0,0,0,0,0,4.7163,4.7247,4.7224,4.7235,4.7286,4.7338,4.7344,4.7318,4.7273,4.7311,4.7305,4.7264,4.7367,4.7322,4.7334,4.739,4.7495,4.7504,4.7512,4.7596,4.7617,4.7634,0,0,0,0,0,0,4.7248,4.7247,4.7221,4.731,4.7325,4.7325,4.7372,4.734,4.7367,4.7358,4.7323,4.7325,4.7401,4.7402,4.7352,4.7487,4.7423,4.7435,4.7483,4.7502,4.7517,4.7515,4.7276,0,0,0,0,0,4.7278,4.7322,4.7317,4.7396,4.7405,4.7388,4.7409,4.7388,4.7401,4.7407,4.7405,4.7419,4.7454,4.7479,4.7511,4.7603,4.7603,4.7648,4.7663,4.7676,4.7686,4.7733,4.7752,4.7546,4.7546,4.7545,0,0,4.7338,4.7343,4.7373,4.7413,4.7422,4.7466,4.7393,4.7444,4.7476,4.7414,4.748,4.7479,4.7492,4.7573,4.7609,4.7576,4.7743,4.7687,4.7697,4.77,4.7744,4.7764,4.7781,4.7552,4.7551,4.755,0,0,4.7471,4.748,4.7546,4.7556,4.7571,4.7559,4.7575,4.758,4.7577,4.7643,4.7597,4.7634,4.7696,4.7707,4.7721,4.7857,4.7819,4.7868,4.7948,4.7995,4.8011,4.8025,4.8072,4.809,4.7878,4.7879,4.7879,0,4.7545,4.7611,4.7583,4.7637,4.7655,4.7602,4.7667,4.7678,4.7702,4.7715,4.7679,4.7756,4.7761,4.7843,4.7876,4.7889,4.7905,4.7867,4.8011,4.8025,4.8038,4.8082,4.81,4.7884,4.7884,4.7883,4.7883,0,4.7699,4.7746,4.7797,4.7823,4.7846,4.7906,4.7885,4.7912,4.7888,4.788,4.7946,4.795,4.7982,4.8,4.7977,4.8078,4.8058,4.8017,4.7952,4.8064,4.8105,4.8122,4.7893,4.7891,4.7889,4.7887,0,0,4.7887,4.7896,4.7915,4.7925,4.7938,4.7972,4.8028,4.806,4.8083,4.8102,4.8146,4.82,4.8162,4.8178,4.8156,4.8197,4.8302,4.8151,4.815,4.8177,4.8412,4.8442,4.8462,4.8278,4.8281,4.8284,4.8411,0,4.8017,4.8114,4.809,4.8185,4.8227,4.8177,4.8225,4.8237,4.823,4.8263,4.8255,4.8293,4.8242,4.825,4.8289,4.8282,4.8349,4.8272,4.8318,4.832,4.8315,4.8484,4.8516,4.8635,4.8427,4.843,4.8432,0,4.8182,4.8207,4.8307,4.8311,4.8328,4.8372,4.8398,4.8431,4.8443,4.8435,4.8452,4.8422,4.8475,4.8411,4.8482,4.8431,4.8448,4.8447,4.8451,4.8453,4.8382,4.8489,4.8673,4.8691,4.8457,4.8455,4.8453,0,4.8307,4.8366,4.8433,4.8443,4.845,4.8482,4.8486,4.8495,4.8515,4.8537,4.855,4.8578,4.8594,4.8616,4.8593,4.8548,4.8668,4.8602,4.8661,4.8662,4.8688,4.8686,4.8875,4.8701,4.8701,4.8701,4.87,0,4.8454,4.8517,4.8489,4.853,4.8598,4.8569,4.8637,4.8635,4.8643,4.8681,4.864,4.8677,4.8645,4.8679,4.8661,4.8723,4.873,4.8724,4.8718,4.8727,4.8728,4.8737,4.8727,4.8706,4.8704,4.8704,4.8703,0,4.8605,4.8589,4.8658,4.8659,4.8661,4.8711,4.8711,4.8748,4.8738,4.8787,4.8797,4.8782,4.8819,4.8799,4.8837,4.8825,4.8905,4.8888,4.8901,4.8896,4.8956,4.895,4.9157,4.9182,4.8993,4.8995,4.8996,0,4.8699,4.8746,4.8752,4.8775,4.8783,4.8821,4.8841,4.8814,4.8836,4.8853,4.8888,4.8922,4.8947,4.9009,4.9,4.9029,4.9012,4.9083,4.9016,4.9023,4.9012,4.9009,4.9013,4.9096,4.9098,4.91,4.9101,0,4.8868,4.8857,4.8889,4.8918,4.8943,4.8964,4.8982,4.9003,4.8976,4.9003,4.9041,4.9061,4.91,4.9134,4.9159,4.9161,4.9127,4.9123,4.9137,4.9146,4.9151,4.9148,4.8936,4.9118,4.9116,4.9115,4.9114,4.9113,4.8992,4.9031,4.9041,4.9077,4.9087,4.9104,4.9139,4.9133,4.9165,4.9195,4.9177,4.9221,4.923,4.926,4.9267,4.9301,4.9272,4.9294,4.93,4.9305,4.9313,4.9147,4.9305,4.9305,4.9304,4.9304,4.9303,0,4.9157,4.9161,4.9194,4.922,4.9248,4.9214,4.9231,4.9256,4.9296,4.9308,4.9334,4.9377,4.941,4.9404,4.9433,4.946,4.9445,4.9469,4.9466,4.9467,4.9337,4.9321,4.9481,4.9481,4.9481,4.948,4.948,4.948,4.9246,4.9309,4.93,4.9368,4.937,4.9414,4.9427,4.9442,4.9451,4.9501,4.9528,4.9524,4.9528,4.9557,4.9585,4.9582,4.9594,4.9623,4.9615,4.9493,4.9476,4.9459,4.9443,4.9626,4.9627,4.9741,4.9742,4.9743]}]]